QPF
0.00 0.00 0.00 0.00 0.00 0.00 0.00 0.00 0.00 0.00 0.00 0.00 0.00 0.00 0.00 0.00 0.00 0.00 0.00 0.00 0.00 0.00 0.00 0.00 0.00 0.00 0.00 0.00 0.00 0.00 0.00 0.00 0.00 0.00 0.00 0.00 0.00 0.00 0.00 0.00 0.00 0.00 0.00 0.00 0.00
0.00 0.00 0.00 0.00 0.00 0.00 0.00 0.00 0.00 0.00 0.00 0.00 0.00 0.00 0.00 0.00 0.00 0.00 0.00 0.00 0.00 0.00 0.00 0.00 0.00 0.00 0.00 0.00 0.00 0.00 0.00 0.00 0.00 0.00 0.00 0.00 0.00 0.00 0.00 0.00 0.00 0.00 0.00 0.00 0.00
0.00 0.00 0.00 0.00 0.00 0.00 0.00 0.00 0.00 0.00 0.00 0.00 0.00 0.00 0.00 0.00 0.00 0.00 0.00 0.00 0.00 0.00 0.00 0.00 0.00 0.00 0.00 0.00 0.00 0.00 0.00 0.00 0.00 0.00 0.00 0.00 0.00 0.00 0.00 0.00 0.00 0.00 0.00 0.00 0.00
0.00 0.00 0.00 0.00 0.00 0.00 0.00 0.00 0.00 0.00 0.00 0.00 0.00 0.00 0.00 0.00 0.00 0.00 0.00 0.00 0.00 0.00 0.00 0.00 0.00 0.00 0.00 0.00 0.00 0.00 0.00 0.00 0.00 0.00 0.00 0.00 0.00 0.00 0.00 0.00 0.00 0.00 0.00 0.00 0.00
0.00 0.00 0.00 0.00 0.00 0.00 0.00 0.00 0.00 0.00 0.00 0.00 0.00 0.00 0.00 0.00 0.00 0.00 0.00 0.00 0.00 0.00 0.00 0.00 0.00 0.00 0.00 0.00 0.00 0.00 0.00 0.00 0.00 0.00 0.00 0.00 0.00 0.00 0.00 0.00 0.00 0.00 0.00 0.00 0.00
0.00 0.00 0.00 0.00 0.00 0.00 0.00 0.00 0.00 0.00 0.00 0.00 0.00 0.00 0.00 0.00 0.00 0.00 0.00 0.00 0.00 0.00 0.00 0.00 0.00 0.00 0.00 0.00 0.00 0.00 0.00 0.00 0.00 0.00 0.00 0.00 0.00 0.00 0.00 0.00 0.00 0.00 0.00 0.00 0.00
0.00 0.00 0.00 0.00 0.00 0.00 0.00 0.00 0.00 0.00 0.00 0.00 0.00 0.00 0.00 0.00 0.00 0.00 0.00 0.00 0.00 0.00 0.00 0.00 0.00 0.00 0.00 0.00 0.00 0.00 0.00 0.00 0.00 0.00 0.00 0.00 0.00 0.00 0.00 0.00 0.00 0.00 0.00 0.00 0.00
0.00 0.00 0.00 0.00 0.00 0.00 0.00 0.00 0.00 0.00 0.00 0.00 0.00 0.00 0.00 0.00 0.00 0.00 0.00 0.00 0.00 0.00 0.00 0.00 0.00 0.00 0.00 0.00 0.00 0.00 0.00 0.00 0.00 0.00 0.00 0.00 0.00 0.00 0.00 0.00 0.00 0.00 0.00 0.00 0.00
0.00 0.00 0.00 0.00 0.00 0.00 0.00 0.00 0.00 0.00 0.00 0.00 0.00 0.00 0.00 0.00 0.00 0.00 0.00 0.00 0.00 0.00 0.00 0.00 0.00 0.00 0.00 0.00 0.00 0.00 0.00 0.00 0.00 0.00 0.00 0.00 0.00 0.00 0.00 0.00 0.00 0.00 0.00 0.00 0.00
0.00 0.00 0.00 0.00 0.00 0.00 0.00 0.00 0.00 0.00 0.00 0.00 0.00 0.00 0.00 0.00 0.00 0.00 0.00 0.00 0.00 0.00 0.00 0.00 0.00 0.00 0.00 0.00 0.00 0.00 0.00 0.00 0.00 0.00 0.00 0.00 0.00 0.00 0.00 0.00 0.00 0.00 0.00 0.00 0.00
0.00 0.00 0.00 0.00 0.00 0.00 0.00 0.00 0.00 0.00 0.00 0.00 0.00 0.00 0.00 0.00 0.00 0.00 0.00 0.00 0.00 0.00 0.00 0.00 0.00 0.00 0.00 0.00 0.00 0.00 0.00 0.00 0.00 0.00 0.00 0.00 0.00 0.00 0.00 0.00 0.00 0.00 0.00 0.00 0.00
0.00 0.00 0.00 0.00 0.00 0.00 0.00 0.00 0.00 0.00 0.00 0.00 0.00 0.00 0.00 0.00 0.00 0.00 0.00 0.00 0.00 0.00 0.00 0.00 0.00 0.00 0.00 0.00 0.00 0.00 0.00 0.00 0.00 0.00 0.00 0.00 0.00 0.00 0.00 0.00 0.00 0.00 0.00 0.00 0.00
0.00 0.00 0.00 0.00 0.00 0.00 0.00 0.00 0.00 0.00 0.00 0.00 0.00 0.00 0.00 0.00 0.00 0.00 0.00 0.00 0.00 0.00 0.00 0.00 0.00 0.00 0.00 0.00 0.00 0.00 0.00 0.00 0.00 0.00 0.00 0.00 0.00 0.00 0.00 0.00 0.00 0.00 0.00 0.00 0.00
0.00 0.00 0.00 0.00 0.00 0.00 0.00 0.00 0.00 0.00 0.00 0.00 0.00 0.00 0.00 0.00 0.00 0.00 0.00 0.00 0.00 0.00 0.00 0.00 0.00 0.00 0.00 0.00 0.00 0.00 0.00 0.00 0.00 0.00 0.00 0.00 0.00 0.00 0.00 0.00 0.00 0.00 0.00 0.00 0.00
0.00 0.00 0.00 0.00 0.00 0.00 0.00 0.00 0.00 0.00 0.00 0.00 0.00 0.00 0.00 0.00 0.00 0.00 0.00 0.00 0.00 0.00 0.00 0.00 0.00 0.00 0.00 0.00 0.00 0.00 0.00 0.00 0.00 0.00 0.00 0.00 0.00 0.00 0.00 0.00 0.00 0.01 0.00 0.00 0.00
0.00 0.00 0.00 0.00 0.00 0.00 0.00 0.00 0.00 0.00 0.00 0.00 0.00 0.00 0.00 0.00 0.00 0.00 0.00 0.00 0.00 0.00 0.00 0.00 0.00 0.00 0.00 0.00 0.00 0.00 0.00 0.00 0.00 0.00 0.00 0.00 0.00 0.00 0.00 0.00 0.00 0.03 0.03 0.01 0.00
0.00 0.00 0.00 0.00 0.00 0.00 0.00 0.00 0.00 0.00 0.00 0.00 0.00 0.00 0.00 0.00 0.00 0.00 0.00 0.00 0.00 0.00 0.00 0.00 0.00 0.00 0.00 0.00 0.00 0.00 0.00 0.00 0.00 0.00 0.00 0.00 0.00 0.00 0.03 0.05 0.02 0.01 0.04 0.03 0.01
0.00 0.00 0.00 0.00 0.00 0.00 0.00 0.00 0.00 0.00 0.00 0.00 0.00 0.00 0.00 0.00 0.00 0.00 0.00 0.00 0.00 0.00 0.00 0.00 0.00 0.00 0.00 0.00 0.00 0.00 0.00 0.00 0.00 0.00 0.00 0.00 0.00 0.01 0.05 0.04 0.02 0.01 0.02 0.03 0.02
0.00 0.00 0.00 0.00 0.00 0.00 0.00 0.00 0.00 0.00 0.00 0.00 0.00 0.00 0.00 0.00 0.00 0.00 0.00 0.00 0.00 0.00 0.00 0.00 0.00 0.00 0.00 0.00 0.00 0.00 0.00 0.00 0.00 0.00 0.00 0.00 0.00 0.02 0.02 0.02 0.03 0.03 0.01 0.00 0.00
0.00 0.00 0.00 0.00 0.00 0.00 0.00 0.00 0.00 0.00 0.00 0.00 0.00 0.00 0.00 0.00 0.00 0.00 0.00 0.00 0.00 0.00 0.00 0.00 0.00 0.00 0.00 0.00 0.00 0.00 0.00 0.01 0.02 0.01 0.01 0.00 0.02 0.02 0.00 0.00 0.00 0.00 0.00 0.00 0.00
0.00 0.00 0.00 0.00 0.00 0.00 0.00 0.00 0.00 0.00 0.00 0.00 0.00 0.00 0.00 0.00 0.00 0.00 0.00 0.00 0.00 0.00 0.00 0.00 0.00 0.00 0.00 0.00 0.00 0.00 0.00 0.00 0.02 0.02 0.01 0.00 0.00 0.00 0.00 0.00 0.00 0.00 0.00 0.00 0.00
0.00 0.00 0.00 0.00 0.00 0.00 0.00 0.00 0.00 0.00 0.00 0.00 0.00 0.00 0.00 0.00 0.00 0.00 0.00 0.00 0.00 0.00 0.00 0.00 0.00 0.00 0.00 0.00 0.00 0.02 0.03 0.02 0.03 0.01 0.01 0.02 0.01 0.00 0.00 0.00 0.00 0.00 0.00 0.00 0.00
0.00 0.00 0.00 0.00 0.00 0.00 0.00 0.00 0.00 0.00 0.00 0.00 0.00 0.00 0.00 0.00 0.00 0.00 0.00 0.00 0.00 0.00 0.00 0.00 0.00 0.00 0.00 0.00 0.02 0.02 0.02 0.02 0.05 0.03 0.01 0.01 0.01 0.00 0.01 0.01 0.00 0.00 0.00 0.00 0.00
0.00 0.00 0.00 0.00 0.00 0.00 0.00 0.00 0.00 0.00 0.00 0.00 0.00 0.00 0.00 0.00 0.00 0.00 0.00 0.00 0.00 0.00 0.00 0.01 0.01 0.01 0.00 0.01 0.01 0.01 0.02 0.02 0.04 0.02 0.02 0.00 0.01 0.01 0.04 0.07 0.01 0.00 0.00 0.00 0.00
0.00 0.00 0.00 0.00 0.00 0.00 0.00 0.00 0.00 0.00 0.00 0.00 0.00 0.00 0.00 0.00 0.00 0.00 0.00 0.00 0.00 0.00 0.00 0.01 0.00 0.00 0.00 0.00 0.00 0.00 0.00 0.00 0.00 0.00 0.02 0.01 0.02 0.04 0.07 0.08 0.01 0.00 0.00 0.00 0.00
0.00 0.00 0.00 0.00 0.00 0.00 0.00 0.00 0.00 0.00 0.00 0.00 0.00 0.00 0.00 0.00 0.00 0.00 0.00 0.00 0.00 0.00 0.00 0.01 0.01 0.01 0.00 0.00 0.00 0.00 0.00 0.00 0.00 0.00 0.01 0.01 0.04 0.02 0.01 0.02 0.00 0.00 0.00 0.00 0.00
0.00 0.00 0.00 0.00 0.00 0.00 0.00 0.00 0.00 0.00 0.00 0.00 0.00 0.00 0.00 0.00 0.00 0.00 0.00 0.00 0.00 0.00 0.00 0.00 0.01 0.01 0.01 0.01 0.01 0.00 0.00 0.00 0.00 0.02 0.01 0.02 0.03 0.00 0.00 0.00 0.00 0.00 0.00 0.00 0.00
MSLP
1018.33 1018.36 1018.26 1018.16 1018.04 1018.00 1017.82 1017.59 1017.40 1017.19 1016.93 1016.61 1016.35 1016.14 1015.79 1015.41 1014.93 1014.24 1012.79 1010.62 1010.41 1010.19 1010.20 1010.06 1010.14 1010.40 1010.77 1010.61 1009.91 1009.78 1009.83 1008.60 1008.34 1007.37 1006.00 1005.16 1004.07 1002.54 1002.22 1001.38 1000.50 1000.39 1000.83 1001.82 1002.20
1018.11 1018.00 1018.04 1018.01 1017.92 1017.78 1017.66 1017.46 1017.24 1017.00 1016.77 1016.58 1016.28 1015.94 1015.62 1015.26 1014.69 1012.72 1009.77 1009.51 1009.69 1010.05 1010.18 1010.08 1010.12 1010.07 1010.51 1010.14 1009.92 1009.39 1008.60 1007.96 1007.61 1006.90 1005.94 1004.99 1004.33 1003.98 1003.16 1002.36 1001.82 1001.20 1001.07 1001.70 1002.02
1017.74 1017.83 1017.75 1017.69 1017.69 1017.56 1017.38 1017.29 1017.10 1016.89 1016.62 1016.43 1016.21 1015.84 1015.28 1015.12 1013.94 1010.04 1008.97 1009.16 1009.62 1009.86 1010.08 1010.04 1010.01 1009.96 1009.89 1009.82 1009.54 1008.63 1007.80 1007.81 1007.10 1006.34 1005.56 1004.97 1004.14 1003.85 1003.80 1003.24 1002.90 1002.62 1002.14 1001.78 1002.19
1017.25 1017.56 1017.60 1017.43 1017.36 1017.24 1017.11 1016.98 1016.90 1016.60 1016.42 1016.17 1015.97 1015.66 1015.15 1014.81 1012.72 1009.48 1009.26 1009.36 1009.49 1009.55 1009.79 1009.76 1009.84 1009.80 1009.36 1009.21 1008.86 1008.41 1007.54 1007.14 1006.57 1005.97 1005.28 1004.72 1004.07 1003.53 1003.58 1003.50 1003.06 1002.44 1002.34 1002.28 1002.18
1017.04 1017.06 1017.18 1017.22 1016.95 1017.02 1016.79 1016.62 1016.42 1016.35 1016.14 1015.85 1015.68 1015.49 1015.05 1013.89 1010.72 1009.05 1009.08 1009.16 1009.47 1009.61 1009.59 1009.47 1009.36 1009.13 1009.04 1008.19 1008.20 1007.76 1007.29 1006.56 1005.72 1005.31 1004.83 1004.32 1003.76 1003.68 1003.19 1002.92 1002.78 1002.31 1001.98 1002.22 1002.43
1016.50 1016.66 1016.70 1016.81 1016.80 1016.73 1016.54 1016.23 1015.99 1015.79 1015.70 1015.45 1015.26 1015.35 1015.04 1012.94 1008.28 1008.01 1008.50 1008.84 1008.92 1009.30 1009.08 1008.94 1008.46 1008.21 1008.03 1007.74 1007.73 1007.23 1006.86 1006.26 1005.40 1005.18 1004.74 1004.34 1003.77 1003.92 1002.99 1002.96 1002.68 1002.25 1001.97 1001.70 1001.81
1015.94 1016.21 1016.25 1016.42 1016.44 1016.44 1016.28 1015.84 1015.51 1015.32 1015.01 1014.88 1014.82 1014.92 1013.75 1010.27 1007.98 1008.04 1008.36 1008.09 1008.15 1008.40 1008.61 1008.10 1007.73 1007.99 1007.74 1007.59 1006.98 1006.96 1006.86 1006.22 1005.56 1005.18 1004.59 1004.39 1003.61 1003.43 1002.84 1002.77 1002.38 1002.03 1001.72 1001.46 1001.17
1015.71 1015.92 1015.88 1016.04 1016.13 1015.99 1015.84 1015.42 1015.03 1014.62 1014.42 1014.23 1014.37 1014.31 1012.17 1008.42 1007.86 1008.02 1007.56 1007.60 1007.57 1007.64 1007.85 1007.79 1007.57 1007.82 1007.91 1007.62 1007.55 1007.77 1007.57 1007.12 1006.11 1005.46 1004.59 1004.59 1003.63 1002.81 1002.32 1002.09 1001.56 1001.08 1000.76 1000.53 1000.26
1015.47 1015.76 1015.62 1015.72 1015.68 1015.58 1015.32 1014.92 1014.43 1014.03 1013.68 1013.73 1014.18 1013.52 1010.40 1007.74 1007.60 1006.80 1007.10 1007.28 1007.02 1007.29 1007.46 1007.74 1007.75 1008.05 1008.45 1008.50 1008.86 1008.54 1008.20 1007.60 1005.92 1005.27 1004.57 1004.25 1003.35 1002.37 1001.42 1001.29 1001.03 1000.71 1000.36 999.98 999.65
1015.28 1015.70 1015.62 1015.51 1015.32 1015.09 1014.63 1014.16 1013.78 1013.62 1013.08 1012.95 1012.91 1012.97 1009.39 1007.30 1006.22 1006.22 1006.52 1006.58 1006.74 1006.84 1007.76 1007.93 1008.30 1008.66 1008.75 1009.08 1008.80 1008.62 1008.19 1007.13 1006.46 1005.41 1004.86 1004.27 1003.26 1002.39 1001.62 1001.01 1000.56 1000.33 999.75 999.34 999.02
1015.05 1015.30 1015.37 1015.28 1015.07 1014.57 1014.35 1013.64 1013.83 1013.42 1012.20 1010.58 1010.02 1008.94 1007.50 1006.88 1006.06 1006.24 1006.49 1006.58 1006.84 1007.28 1008.04 1007.91 1008.64 1008.52 1008.29 1008.13 1007.98 1007.98 1007.54 1006.90 1005.81 1005.26 1004.97 1004.20 1003.38 1002.39 1001.54 1000.99 1000.32 999.79 999.14 998.73 998.30
1014.88 1014.94 1014.98 1014.83 1014.60 1014.22 1014.27 1013.72 1012.26 1011.94 1011.24 1009.30 1008.46 1008.01 1007.24 1006.91 1006.62 1005.80 1005.89 1006.82 1006.86 1007.62 1007.76 1007.98 1007.80 1007.31 1007.32 1007.21 1007.21 1007.20 1006.99 1006.40 1005.48 1005.20 1004.94 1004.01 1003.13 1002.44 1001.59 1000.59 999.81 999.04 998.30 998.16 997.83
1014.33 1014.80 1014.49 1014.56 1014.19 1013.97 1013.10 1012.24 1011.72 1011.56 1011.05 1008.04 1006.77 1006.89 1006.56 1006.53 1006.10 1005.51 1005.80 1006.21 1006.75 1007.29 1007.39 1007.29 1006.61 1006.26 1006.53 1006.43 1006.26 1006.04 1006.26 1005.90 1005.69 1005.11 1004.60 1004.06 1002.55 1001.96 1000.81 999.81 999.02 997.93 996.90 996.82 996.94
1014.14 1014.18 1014.55 1014.35 1014.31 1012.97 1012.52 1011.69 1011.76 1011.59 1010.64 1007.58 1006.19 1005.49 1005.75 1006.11 1005.59 1005.16 1005.42 1005.99 1006.46 1006.84 1007.08 1006.76 1005.91 1005.59 1005.41 1005.41 1005.52 1005.47 1005.70 1005.51 1005.50 1005.55 1004.92 1004.47 1002.58 1002.02 1000.98 999.80 998.36 997.81 996.37 996.09 996.33
1014.00 1014.22 1014.12 1014.29 1013.84 1012.86 1012.65 1012.04 1011.56 1011.64 1009.44 1006.32 1005.38 1004.62 1004.82 1005.50 1004.74 1004.83 1005.18 1005.56 1006.13 1006.48 1006.87 1006.28 1005.74 1005.47 1005.05 1004.84 1005.11 1005.07 1005.38 1005.56 1005.74 1005.86 1005.28 1004.54 1004.09 1001.53 1001.44 1000.00 999.19 998.84 998.16 996.31 996.30
1013.98 1013.91 1014.06 1013.17 1013.76 1012.54 1012.18 1011.99 1011.97 1011.46 1007.66 1005.08 1004.63 1004.63 1005.08 1005.28 1004.74 1004.88 1005.14 1005.62 1005.90 1006.50 1006.44 1006.00 1005.30 1005.24 1004.52 1004.44 1004.68 1005.08 1005.40 1005.77 1006.02 1006.33 1005.84 1004.16 1004.74 1002.53 1001.48 1000.02 999.48 999.08 1000.61 1000.04 999.30
1013.94 1014.20 1014.12 1013.14 1012.68 1012.37 1012.20 1012.02 1011.92 1009.40 1005.80 1005.54 1004.76 1004.69 1004.99 1005.13 1005.11 1004.91 1005.59 1006.03 1006.46 1006.92 1006.76 1005.90 1005.20 1004.51 1004.04 1004.36 1004.55 1005.25 1006.16 1006.92 1006.58 1006.50 1005.11 1004.18 1004.40 1003.96 1003.19 1002.35 1001.68 1001.34 1001.55 1001.95 1001.14
1013.96 1013.70 1013.24 1012.79 1012.29 1012.24 1012.35 1011.99 1010.54 1007.86 1006.74 1006.10 1005.68 1005.86 1006.09 1005.95 1005.81 1005.70 1005.69 1006.10 1006.41 1006.64 1006.44 1006.18 1004.89 1004.01 1003.12 1003.45 1004.12 1004.89 1006.14 1006.98 1006.72 1006.42 1005.43 1004.61 1004.03 1004.27 1004.52 1004.03 1003.20 1003.31 1003.25 1002.86 1002.50
1013.78 1013.12 1013.09 1012.46 1011.98 1012.19 1012.32 1011.13 1009.68 1008.40 1007.96 1007.36 1006.76 1006.87 1006.44 1006.31 1006.63 1006.28 1006.78 1007.14 1007.75 1007.86 1008.37 1007.40 1005.48 1004.40 1003.28 1002.86 1003.85 1004.55 1005.52 1005.79 1006.56 1006.74 1006.16 1004.58 1003.68 1004.15 1004.62 1004.44 1003.91 1003.38 1003.63 1003.83 1003.92
1013.80 1012.75 1011.98 1012.02 1011.78 1012.06 1011.80 1010.14 1009.39 1009.03 1008.75 1008.16 1007.82 1007.55 1007.66 1008.04 1007.91 1008.08 1008.02 1007.80 1008.40 1008.45 1008.82 1009.04 1007.92 1006.12 1005.02 1004.66 1003.94 1004.24 1004.90 1006.07 1006.96 1007.30 1006.24 1004.50 1004.75 1005.29 1005.25 1004.54 1004.88 1004.91 1005.26 1005.64 1005.68
1013.67 1012.69 1011.84 1011.55 1011.77 1011.71 1011.29 1010.05 1009.67 1009.74 1009.51 1009.42 1009.16 1009.17 1009.45 1009.44 1009.45 1009.43 1009.32 1009.17 1009.19 1009.38 1009.66 1009.76 1009.83 1008.17 1007.30 1005.92 1005.44 1005.13 1005.26 1005.87 1006.45 1007.16 1006.87 1005.82 1005.55 1005.90 1005.32 1004.80 1005.19 1005.72 1006.43 1006.84 1007.20
1013.07 1012.34 1011.74 1011.28 1011.74 1011.18 1010.80 1010.25 1010.19 1010.05 1010.09 1010.21 1010.46 1010.55 1010.58 1010.60 1010.49 1010.42 1010.24 1010.13 1010.12 1010.42 1010.87 1010.86 1010.53 1009.87 1008.68 1007.17 1006.78 1006.34 1006.24 1006.60 1006.89 1006.97 1006.67 1006.30 1006.03 1005.68 1005.15 1005.21 1005.85 1006.85 1007.76 1008.13 1008.47
1012.88 1012.16 1011.48 1011.24 1011.66 1011.25 1010.75 1010.89 1010.77 1010.70 1010.84 1010.94 1011.15 1011.50 1011.54 1011.51 1011.57 1011.06 1010.98 1010.84 1010.80 1011.23 1011.82 1011.97 1011.57 1011.08 1009.10 1007.56 1007.22 1007.97 1008.43 1008.94 1007.95 1006.80 1006.96 1006.96 1005.77 1005.02 1004.50 1005.63 1006.77 1007.96 1008.91 1009.46 1009.65
1012.79 1012.38 1011.92 1011.59 1011.12 1010.97 1011.04 1011.25 1011.57 1011.76 1011.96 1011.95 1012.07 1012.19 1012.15 1012.06 1012.06 1011.93 1011.81 1011.40 1011.41 1011.66 1011.97 1012.19 1012.47 1012.34 1011.56 1010.09 1009.86 1009.71 1008.93 1008.26 1008.55 1007.45 1006.69 1005.93 1005.60 1005.32 1004.93 1006.62 1007.76 1008.99 1010.04 1010.65 1010.76
1012.92 1012.30 1011.79 1011.65 1011.68 1011.55 1011.43 1011.49 1011.74 1012.06 1012.34 1012.45 1012.76 1012.79 1012.93 1012.95 1012.87 1012.72 1012.51 1012.20 1012.11 1011.98 1012.35 1012.92 1013.07 1012.91 1012.14 1010.97 1010.28 1009.75 1009.13 1007.93 1007.89 1007.72 1007.21 1006.36 1006.45 1006.12 1006.64 1007.77 1009.00 1009.95 1010.90 1011.08 1011.56
1013.21 1012.59 1011.70 1011.72 1011.70 1012.00 1012.17 1012.04 1011.66 1012.01 1012.45 1012.94 1012.90 1012.94 1013.19 1013.47 1013.56 1013.57 1013.33 1013.34 1012.99 1012.64 1013.00 1013.51 1013.61 1013.46 1012.23 1011.11 1010.29 1008.75 1007.67 1007.24 1007.14 1007.18 1006.72 1007.22 1007.43 1007.48 1008.12 1009.11 1010.10 1011.15 1011.90 1012.38 1012.85
1012.77 1012.25 1012.27 1012.22 1012.30 1012.37 1012.44 1012.07 1012.20 1012.56 1013.07 1012.87 1012.90 1013.18 1013.46 1013.68 1013.65 1013.61 1013.51 1013.34 1013.18 1012.99 1013.15 1013.97 1014.09 1013.76 1011.94 1011.01 1009.74 1008.39 1007.08 1006.78 1006.48 1007.01 1007.12 1007.38 1008.47 1009.48 1010.14 1010.92 1011.93 1012.70 1013.29 1013.71 1014.02
Thickness
5621 5621 5623 5625 5626 5626 5627 5629 5632 5633 5636 5640 5642 5644 5648 5651 5655 5660 5671 5688 5689 5689 5688 5688 5684 5678 5672 5668 5676 5678 5654 5662 5668 5677 5690 5708 5710 5734 5737 5735 5749 5753 5746 5743 5749
5615 5616 5615 5616 5618 5620 5621 5622 5624 5626 5628 5630 5634 5637 5641 5644 5648 5661 5687 5688 5685 5681 5678 5674 5668 5669 5657 5660 5660 5656 5656 5664 5678 5681 5684 5696 5697 5700 5710 5715 5720 5731 5744 5740 5741
5607 5608 5610 5611 5611 5612 5614 5615 5617 5618 5620 5623 5625 5628 5635 5636 5646 5677 5684 5682 5676 5673 5669 5666 5663 5660 5652 5652 5651 5656 5654 5662 5670 5680 5686 5685 5691 5698 5688 5691 5700 5701 5713 5726 5726
5601 5599 5600 5603 5604 5605 5606 5609 5609 5611 5613 5616 5618 5621 5625 5628 5644 5669 5672 5669 5667 5664 5660 5657 5651 5642 5645 5641 5650 5641 5657 5660 5665 5671 5674 5674 5685 5686 5684 5684 5697 5702 5707 5714 5713
5593 5594 5593 5595 5597 5596 5599 5601 5602 5603 5605 5608 5610 5612 5616 5627 5645 5663 5661 5660 5656 5653 5648 5645 5641 5639 5631 5643 5641 5640 5649 5656 5665 5665 5666 5672 5675 5671 5677 5689 5694 5702 5707 5701 5700
5585 5585 5586 5586 5587 5588 5589 5592 5595 5596 5597 5600 5602 5602 5604 5613 5658 5661 5655 5650 5648 5641 5640 5638 5638 5640 5636 5637 5633 5642 5644 5649 5656 5650 5654 5655 5660 5657 5675 5678 5681 5687 5691 5697 5696
5578 5576 5577 5577 5577 5578 5579 5583 5587 5588 5590 5592 5593 5593 5602 5622 5647 5648 5645 5644 5643 5638 5629 5636 5638 5630 5632 5626 5639 5637 5627 5635 5643 5644 5645 5645 5638 5642 5664 5665 5666 5672 5680 5682 5689
5566 5567 5567 5567 5567 5569 5571 5574 5578 5581 5583 5585 5583 5585 5596 5632 5635 5635 5638 5633 5635 5634 5629 5628 5630 5623 5619 5625 5621 5609 5614 5604 5631 5630 5639 5624 5609 5648 5657 5653 5658 5667 5672 5677 5684
5555 5555 5556 5556 5557 5558 5562 5565 5569 5572 5575 5575 5572 5576 5598 5624 5622 5631 5629 5621 5626 5624 5622 5620 5616 5608 5602 5596 5586 5592 5584 5588 5617 5625 5623 5616 5610 5638 5650 5648 5646 5651 5656 5665 5676
5543 5539 5542 5544 5546 5549 5553 5558 5561 5564 5568 5569 5570 5566 5596 5609 5622 5623 5621 5620 5615 5616 5603 5600 5595 5583 5584 5576 5572 5578 5578 5590 5591 5609 5606 5600 5606 5624 5631 5634 5639 5643 5655 5663 5669
5529 5528 5530 5532 5534 5539 5543 5550 5550 5554 5565 5577 5582 5589 5599 5605 5614 5608 5610 5607 5605 5597 5581 5589 5571 5569 5577 5582 5587 5585 5585 5583 5595 5604 5592 5596 5598 5612 5622 5625 5631 5638 5648 5657 5664
5513 5514 5517 5520 5523 5528 5529 5537 5550 5552 5550 5577 5582 5585 5591 5594 5587 5601 5606 5589 5589 5575 5582 5578 5572 5587 5590 5589 5586 5580 5575 5575 5590 5596 5590 5593 5592 5601 5612 5622 5629 5637 5648 5651 5661
5502 5500 5506 5507 5513 5517 5527 5536 5539 5542 5541 5573 5584 5578 5582 5586 5582 5592 5593 5587 5581 5575 5576 5570 5587 5594 5587 5582 5581 5583 5573 5576 5576 5586 5590 5583 5591 5594 5612 5625 5634 5645 5655 5659 5660
5487 5491 5489 5494 5500 5512 5519 5526 5526 5530 5534 5566 5571 5577 5580 5578 5576 5593 5591 5584 5576 5570 5572 5572 5588 5586 5583 5582 5581 5573 5583 5585 5580 5571 5561 5580 5562 5586 5602 5613 5631 5634 5649 5659 5665
5474 5475 5479 5481 5488 5503 5502 5509 5517 5516 5535 5566 5568 5583 5581 5572 5582 5580 5589 5581 5567 5568 5570 5566 5573 5573 5575 5579 5581 5577 5582 5576 5573 5564 5559 5572 5556 5584 5592 5600 5617 5612 5627 5650 5661
5459 5465 5466 5480 5477 5489 5495 5499 5501 5513 5529 5563 5568 5563 5562 5566 5573 5576 5575 5575 5573 5562 5565 5567 5580 5574 5576 5585 5582 5580 5574 5569 5566 5557 5543 5570 5555 5573 5583 5600 5610 5612 5603 5611 5624
5448 5448 5454 5467 5476 5477 5484 5488 5497 5514 5561 5549 5553 5560 5559 5559 5563 5566 5556 5555 5547 5537 5542 5561 5567 5577 5584 5569 5577 5568 5554 5529 5537 5539 5547 5576 5562 5568 5571 5579 5588 5594 5595 5594 5608
5435 5443 5451 5456 5467 5472 5474 5480 5504 5532 5533 5542 5544 5544 5539 5547 5549 5551 5552 5544 5548 5543 5543 5540 5550 5570 5583 5574 5564 5557 5549 5526 5531 5536 5549 5571 5559 5565 5546 5567 5579 5579 5583 5590 5595
5425 5437 5442 5451 5461 5463 5463 5473 5498 5514 5518 5519 5529 5526 5536 5541 5538 5543 5539 5535 5527 5524 5516 5524 5548 5568 5577 5580 5569 5560 5545 5560 5542 5546 5538 5561 5577 5560 5553 5559 5567 5579 5577 5579 5580
5417 5435 5446 5445 5453 5454 5460 5489 5497 5501 5505 5510 5514 5523 5521 5516 5519 5517 5522 5528 5515 5520 5516 5508 5511 5546 5553 5557 5566 5561 5565 5528 5525 5524 5535 5566 5556 5546 5547 5558 5557 5561 5562 5559 5561
5412 5426 5436 5443 5447 5450 5453 5483 5490 5490 5492 5496 5502 5503 5502 5503 5502 5500 5504 5509 5503 5502 5499 5498 5491 5514 5525 5537 5540 5547 5548 5548 5543 5532 5526 5534 5543 5535 5544 5555 5554 5552 5549 5543 5543
5412 5421 5435 5442 5440 5452 5460 5480 5472 5485 5487 5489 5487 5489 5489 5490 5490 5490 5491 5492 5491 5484 5477 5479 5473 5470 5497 5524 5530 5534 5540 5539 5526 5531 5534 5536 5536 5542 5549 5550 5550 5540 5534 5528 5526
5411 5421 5432 5439 5431 5439 5467 5468 5475 5478 5477 5479 5479 5476 5476 5475 5468 5480 5476 5477 5476 5469 5452 5454 5446 5437 5478 5510 5517 5503 5506 5498 5511 5528 5521 5524 5537 5546 5554 5550 5538 5523 5515 5513 5513
5409 5411 5427 5432 5445 5451 5455 5458 5458 5461 5457 5463 5465 5464 5463 5462 5464 5460 5460 5466 5463 5458 5452 5445 5436 5430 5426 5455 5476 5462 5485 5504 5498 5512 5523 5530 5540 5546 5554 5537 5525 5511 5503 5500 5502
5406 5416 5432 5418 5429 5444 5453 5458 5455 5449 5453 5454 5445 5448 5446 5440 5441 5438 5443 5446 5448 5448 5437 5424 5412 5420 5429 5449 5461 5467 5471 5502 5498 5501 5505 5526 5530 5534 5533 5522 5512 5505 5498 5497 5495
5398 5411 5428 5434 5443 5440 5436 5444 5457 5453 5448 5438 5438 5443 5439 5429 5430 5420 5425 5419 5422 5428 5419 5407 5397 5402 5412 5433 5445 5466 5490 5503 5507 5507 5517 5516 5513 5518 5516 5510 5502 5494 5487 5482 5479
5408 5417 5419 5430 5433 5430 5428 5445 5444 5439 5439 5442 5439 5431 5424 5422 5419 5416 5414 5414 5415 5412 5405 5395 5379 5398 5415 5434 5445 5453 5492 5503 5513 5510 5511 5513 5504 5499 5484 5479 5476 5472 5469 5467 5466